Tracking 33188 objects as of 10-Feb-2026
HD Live streaming from Space Station
objects crossing your sky now

STARLINK-34775

Track STARLINK-34775 now!
10-day predictions
STARLINK-34775 is classified as:


NORAD ID: 64934
Int'l Code: 2025-158C
Perigee: 555.6 km
Apogee: 557.6 km
Inclination: 97.6 °
Period: 95.6 minutes
Semi major axis: 6927 km
RCS: Unknown
Launch date: July 26, 2025
Source: United States (US)
Launch site: AIR FORCE WESTERN TEST RANGE (AFWTR)
Your satellite tracking list
Your tracking list is empty




NASA's NSSDC Master Catalog

Two Line Element Set (TLE):
1 64934U 25158C   26041.56712190  .00006469  00000-0  45198-3 0  9996
2 64934  97.6034 267.3382 0001444  98.6231 261.5160 15.05660534 31279
Source of the keplerian elements: AFSPC